This demonstration page uses our WeatherBlox Daily Observations layout. Learn more.

Left ArrowRight Arrow

41.86663, -103.66717

Hourly Observations for January 8, 2017

Temp ( °F °C ) Dew Point ( °F °C ) Humidity (%) Winds ( mph kmh ) Pressure ( in mb ) Visibility ( mi km ) Precip ( " mm )
12:53 am 00:53 Cloudy 10 -12.2 5 -15 80 80 ESE 15 24 30.30 1026 10 16 0.00 0.00
1:53 am 01:53 Cloudy 12 -11.1 6 -14.4 77 77 ESE 13 20 30.27 1025 10 16 0.00 0.00
2:53 am 02:53 Clear 12 -11.1 7 -13.9 80 80 SE 8 13 30.25 1024 10 16 0.00 0.00
3:53 am 03:53 Clear 8 -13.3 3 -16.1 80 80 Calm 30.23 1024 10 16 0.00 0.00
4:53 am 04:53 Clear 5 -15 1 -17.2 83 83 N 7 11 30.24 1024 10 16 0.00 0.00
5:53 am 05:53 Clear 5 -15 1 -17.2 83 83 NW 6 9 30.24 1024 10 16 0.00 0.00
6:53 am 06:53 Clear 4 -15.6 0 -17.8 83 83 NNW 6 9 30.23 1024 10 16 0.00 0.00
7:53 am 07:53 Sunny 35 1.7 25 -3.9 67 67 W 22 35 30.14 1021 10 16 0.00 0.00
8:53 am 08:53 Sunny 39 3.9 27 -2.8 62 62 W 18 30 30.16 1021 10 16 0.00 0.00
9:53 am 09:53 Sunny 41 5 28 -2.2 60 60 WNW 20 31 30.18 1022 10 16 0.00 0.00
10:53 am 10:53 Sunny 43 6.1 28 -2.2 56 56 WNW 18 30 30.17 1022 10 16 0.00 0.00
11:53 am 11:53 Sunny 43 6.1 28 -2.2 56 56 WNW 21 33 30.15 1021 10 16 0.00 0.00
12:53 pm 12:53 Sunny 44 6.7 29 -1.7 55 55 WNW 18 30 30.13 1020 10 16 0.00 0.00
1:53 pm 13:53 Sunny 45 7.2 28 -2.2 52 52 WNW 18 30 30.12 1020 10 16 0.00 0.00
2:53 pm 14:53 Sunny 44 6.7 29 -1.7 55 55 NW 14 22 30.14 1021 10 16 0.00 0.00
3:53 pm 15:53 Sunny 43 6.1 29 -1.7 58 58 W 9 15 30.16 1022 10 16 0.00 0.00
4:53 pm 16:53 Clear 35 1.7 29 -1.7 78 78 ENE 3 6 30.22 1023 10 16 0.00 0.00
5:53 pm 17:53 Clear 34 1.1 28 -2.2 79 79 SSE 5 7 30.22 1024 10 16 0.00 0.00
6:53 pm 18:53 Clear 34 1.1 28 -2.2 79 79 NE 9 15 30.23 1024 10 16 0.00 0.00
7:53 pm 19:53 Cloudy 32 0 26 -3.3 79 79 E 12 19 30.13 1020 10 16 0.00 0.00
8:53 pm 20:53 Cloudy 33 0.6 26 -3.3 75 75 ESE 15 24 30.11 1020 10 16 0.00 0.00
9:53 pm 21:53 Cloudy with Light Rain 34 1.1 28 -2.2 79 79 ESE 14 22 30.07 1018 10 16 0.00 0.00
10:05 pm 22:05 Cloudy with Light Freezing Rain 34 1 28 -2 81 81 E 16 26 30.12 1020 10 16 0.00 0.00
10:53 pm 22:53 Cloudy 33 0.6 29 -1.7 85 85 SE 9 15 30.04 1017 10 16 0.02 0.51
11:16 pm 23:16 Cloudy with Light Freezing Rain 34 1 28 -2 81 81 ESE 15 24 30.06 1018 10 16 0.00 0.00
11:53 pm 23:53 Cloudy with Light Freezing Rain 33 0.6 29 -1.7 85 85 ESE 15 24 29.99 1016 9 14 0.00 0.00

Powered by AerisWeather